This is the latest recevied weather packets stored in our database for station/object K1WJY. If no packets are shown the sender has not sent any weather packets the latest 10 day(s).
| Time | Temp. | Humidity | Pressure | Rain* | Wind** | Luminosity | Snow |
|---|---|---|---|---|---|---|---|
| 1787915099 | 20.56° C | 99% | 1018.8 hPa | 0 mm | - | 31 W/m² | - |
| 1787914798 | 20.56° C | 99% | 1018.6 hPa | 0 mm | - | 30 W/m² | - |
| 1787914498 | 20.56° C | 99% | 1018.8 hPa | 0 mm | - | 21 W/m² | - |
| 1787914193 | 20.56° C | 99% | 1018.9 hPa | 0 mm | - | 18 W/m² | - |
| 1787913888 | 20.56° C | 99% | 1018.7 hPa | 0 mm | - | 14 W/m² | - |
| 1787913587 | 20.56° C | 99% | 1018.6 hPa | 0 mm | - | 10 W/m² | - |
| 1787913286 | 20.56° C | 99% | 1018.4 hPa | 0 mm | - | 12 W/m² | - |
| 1787912986 | 20.56° C | 99% | 1018.6 hPa | 0 mm | - | 15 W/m² | - |
| 1787912685 | 20.56° C | 99% | 1018.4 hPa | 0 mm | - | 13 W/m² | - |
| 1787912385 | 20° C | 99% | 1018.5 hPa | 0 mm | - | 12 W/m² | - |
| 1787912084 | 20° C | 99% | 1018.6 hPa | 0 mm | - | 4 W/m² | - |
| 1787911780 | 20° C | 99% | 1018.4 hPa | 0 mm | - | 4 W/m² | - |
| 1787911474 | 20° C | 99% | 1018.1 hPa | 0 mm | - | 4 W/m² | - |
| 1787911172 | 20° C | 99% | 1018.3 hPa | 0 mm | - | 1 W/m² | - |
| 1787910870 | 20° C | 99% | 1018.2 hPa | 0 mm | - | 0 W/m² | - |
| 1787910566 | 20° C | 99% | 1018.5 hPa | 0 mm | - | 0 W/m² | - |
| 1787910261 | 20° C | 99% | 1018.2 hPa | 0 mm | - | 0 W/m² | - |
| 1787909961 | 20° C | 99% | 1018.5 hPa | 0 mm | - | 0 W/m² | - |
| 1787909658 | 20° C | 99% | 1018.4 hPa | 0 mm | - | 0 W/m² | - |
| 1787909358 | 20° C | 99% | 1018.1 hPa | 0 mm | - | 0 W/m² | - |
| 1787909054 | 20° C | 99% | 1018 hPa | 0 mm | - | 0 W/m² | - |
| 1787908753 | 20° C | 99% | 1018.4 hPa | 0 mm | - | 0 W/m² | - |
| 1787908448 | 20° C | 99% | 1018.1 hPa | 0 mm | - | 0 W/m² | - |
| 1787908148 | 19.44° C | 99% | 1018.3 hPa | 0 mm | - | 0 W/m² | - |
| 1787907843 | 19.44° C | 99% | 1018.2 hPa | 0 mm | - | 0 W/m² | - |
* Rain latest hour (hover to see other rain measurements)
** Current wind speed in m/s (hover to see current wind gust speed)